EW8GT-13 Weather Reports


time (UTC)temp
C
wind
direction
speed
KPH
gust
KPH
rain 1hr
cm
rain 24hr
cm
rain mn
cm
humidity
%
barometer
mb
20260506164358 26 0.0 0.0 0.00 0.00 0.00 22 993.6
20260506163757 26 0.0 0.0 0.00 0.00 0.00 21 993.6
20260506163156 26 0.0 0.0 0.00 0.00 0.00 21 993.6
20260506162555 26 0.0 0.0 0.00 0.00 0.00 21 993.6
20260506161953 26 0.0 0.0 0.00 0.00 0.00 21 993.5
20260506161352 26 0.0 0.0 0.00 0.00 0.00 21 993.5
20260506160751 27 0.0 0.0 0.00 0.00 0.00 21 993.6
20260506160150 27 0.0 0.0 0.00 0.00 0.00 21 993.5
20260506155549 27 0.0 0.0 0.00 0.00 0.00 21 993.5
20260506154948 27 0.0 0.0 0.00 0.00 0.00 21 993.5
20260506154346 27 0.0 0.0 0.00 0.00 0.00 21 993.6
20260506153745 28 0.0 0.0 0.00 0.00 0.00 22 993.6
20260506153144 28 0.0 0.0 0.00 0.00 0.00 20 993.6
20260506152543 28 0.0 0.0 0.00 0.00 0.00 20 993.6
20260506151942 28 0.0 0.0 0.00 0.00 0.00 20 993.7
20260506151340 29 0.0 0.0 0.00 0.00 0.00 19 993.6
20260506150739 29 0.0 0.0 0.00 0.00 0.00 19 993.6
20260506150138 30 0.0 0.0 0.00 0.00 0.00 19 993.7
20260506145537 30 0.0 0.0 0.00 0.00 0.00 18 993.7
20260506144936 30 0.0 0.0 0.00 0.00 0.00 18 993.8
20260506144334 30 0.0 0.0 0.00 0.00 0.00 18 993.8
20260506143733 30 0.0 0.0 0.00 0.00 0.00 18 993.8
20260506143132 31 0.0 0.0 0.00 0.00 0.00 18 993.7
20260506142531 31 0.0 0.0 0.00 0.00 0.00 19 993.7
20260506141930 31 0.0 0.0 0.00 0.00 0.00 18 993.8
20260506141328 31 0.0 0.0 0.00 0.00 0.00 17 993.8
20260506140727 31 0.0 0.0 0.00 0.00 0.00 16 993.9
20260506140126 31 0.0 0.0 0.00 0.00 0.00 17 993.9
20260506135525 31 0.0 0.0 0.00 0.00 0.00 16 994.0
20260506134924 31 0.0 0.0 0.00 0.00 0.00 16 994.0
20260506134322 31 0.0 0.0 0.00 0.00 0.00 17 994.0
20260506133721 31 0.0 0.0 0.00 0.00 0.00 16 994.0
20260506133120 32 0.0 0.0 0.00 0.00 0.00 15 994.0
20260506132519 32 0.0 0.0 0.00 0.00 0.00 16 994.0
20260506131917 32 0.0 0.0 0.00 0.00 0.00 16 994.1
20260506131316 32 0.0 0.0 0.00 0.00 0.00 16 994.1
20260506130715 32 0.0 0.0 0.00 0.00 0.00 16 994.1
20260506130114 32 0.0 0.0 0.00 0.00 0.00 16 994.2
20260506125513 32 0.0 0.0 0.00 0.00 0.00 15 994.3
20260506124912 32 0.0 0.0 0.00 0.00 0.00 16 994.2
20260506124310 32 0.0 0.0 0.00 0.00 0.00 16 994.3
20260506123709 33 0.0 0.0 0.00 0.00 0.00 17 994.4
20260506123108 33 0.0 0.0 0.00 0.00 0.00 17 994.4
20260506122507 32 0.0 0.0 0.00 0.00 0.00 16 994.4
20260506121905 32 0.0 0.0 0.00 0.00 0.00 18 994.4
20260506121304 32 0.0 0.0 0.00 0.00 0.00 15 994.5
20260506120703 33 0.0 0.0 0.00 0.00 0.00 16 994.6
20260506115501 33 0.0 0.0 0.00 0.00 0.00 15 994.6
20260506114900 33 0.0 0.0 0.00 0.00 0.00 16 994.6
20260506114258 33 0.0 0.0 0.00 0.00 0.00 15 994.7
20260506113657 33 0.0 0.0 0.00 0.00 0.00 15 994.6
20260506113056 33 0.0 0.0 0.00 0.00 0.00 17 994.7
20260506112455 33 0.0 0.0 0.00 0.00 0.00 16 994.7
20260506111853 33 0.0 0.0 0.00 0.00 0.00 16 994.6
20260506111252 33 0.0 0.0 0.00 0.00 0.00 17 994.7
20260506110651 33 0.0 0.0 0.00 0.00 0.00 17 994.8
20260506110050 32 0.0 0.0 0.00 0.00 0.00 17 994.8
20260506105449 32 0.0 0.0 0.00 0.00 0.00 15 994.8
20260506104847 33 0.0 0.0 0.00 0.00 0.00 16 994.8
20260506104246 33 0.0 0.0 0.00 0.00 0.00 17 994.8
20260506103645 33 0.0 0.0 0.00 0.00 0.00 17 994.8
20260506103044 33 0.0 0.0 0.00 0.00 0.00 17 994.8
20260506102443 33 0.0 0.0 0.00 0.00 0.00 17 994.8
20260506101841 33 0.0 0.0 0.00 0.00 0.00 17 994.9
20260506101240 33 0.0 0.0 0.00 0.00 0.00 17 994.8
20260506100639 33 0.0 0.0 0.00 0.00 0.00 17 994.8
20260506100038 33 0.0 0.0 0.00 0.00 0.00 17 994.9
20260506095437 33 0.0 0.0 0.00 0.00 0.00 19 994.8
20260506094835 33 0.0 0.0 0.00 0.00 0.00 18 994.7
20260506094234 33 0.0 0.0 0.00 0.00 0.00 18 994.9
20260506093633 33 0.0 0.0 0.00 0.00 0.00 18 994.9
20260506093032 33 0.0 0.0 0.00 0.00 0.00 17 994.8